Time,TemperatureF,DewpointF,PressureIn,WindDirection,WindDirectionDegrees,WindSpeedMPH,WindSpeedGustMPH,Humidity,HourlyPrecipIn,Conditions,Clouds,dailyrainin,SoftwareType,DateUTC
2013-01-15 00:05:00,25.5,22.0,30.42,NW,311,2.0,6.0,87,0.00,,,0.00,weatherlink.com 1.10,2013-01-15 05:05:00,
2013-01-15 00:20:00,25.5,22.0,30.42,NNW,340,2.0,6.0,87,0.00,,,0.00,weatherlink.com 1.10,2013-01-15 05:20:00,
2013-01-15 00:35:00,25.7,22.0,30.42,NNW,341,2.0,5.0,87,0.00,,,0.00,weatherlink.com 1.10,2013-01-15 05:35:00,
2013-01-15 00:50:00,25.8,23.0,30.42,North,9,3.0,6.0,87,0.00,,,0.00,weatherlink.com 1.10,2013-01-15 05:50:00,
2013-01-15 01:05:00,26.0,22.0,30.42,NNE,18,6.0,10.0,86,0.00,,,0.00,weatherlink.com 1.10,2013-01-15 06:05:00,
2013-01-15 01:20:00,25.9,22.0,30.42,North,352,5.0,5.0,86,0.00,,,0.00,weatherlink.com 1.10,2013-01-15 06:20:00,
2013-01-15 01:35:00,25.9,22.0,30.42,NNW,348,3.0,7.0,85,0.00,,,0.00,weatherlink.com 1.10,2013-01-15 06:35:00,
2013-01-15 01:50:00,25.8,22.0,30.42,NE,50,3.0,7.0,85,0.00,,,0.00,weatherlink.com 1.10,2013-01-15 06:50:00,
2013-01-15 02:05:00,25.6,22.0,30.42,North,357,1.0,7.0,85,0.00,,,0.00,weatherlink.com 1.10,2013-01-15 07:05:00,
2013-01-15 02:20:00,25.6,22.0,30.42,North,8,2.0,6.0,85,0.00,,,0.00,weatherlink.com 1.10,2013-01-15 07:20:00,
2013-01-15 02:35:00,25.7,22.0,30.42,NNE,33,1.0,6.0,85,0.00,,,0.00,weatherlink.com 1.10,2013-01-15 07:35:00,
2013-01-15 02:50:00,25.6,22.0,30.42,East,89,2.0,5.0,85,0.00,,,0.00,weatherlink.com 1.10,2013-01-15 07:50:00,
2013-01-15 03:05:00,25.3,21.0,30.41,NNE,25,2.0,3.0,85,0.00,,,0.00,weatherlink.com 1.10,2013-01-15 08:05:00,
2013-01-15 03:20:00,24.9,21.0,30.41,North,357,0.0,2.0,86,0.00,,,0.00,weatherlink.com 1.10,2013-01-15 08:20:00,
2013-01-15 03:35:00,24.6,21.0,30.41,North,355,0.0,2.0,87,0.00,,,0.00,weatherlink.com 1.10,2013-01-15 08:35:00,
2013-01-15 03:50:00,24.4,21.0,30.41,North,1,0.0,2.0,88,0.00,,,0.00,weatherlink.com 1.10,2013-01-15 08:50:00,
2013-01-15 04:05:00,24.2,22.0,30.41,NNW,348,2.0,4.0,89,0.00,,,0.00,weatherlink.com 1.10,2013-01-15 09:05:00,
2013-01-15 04:20:00,24.0,21.0,30.41,NNE,15,1.0,5.0,89,0.00,,,0.00,weatherlink.com 1.10,2013-01-15 09:20:00,
2013-01-15 04:35:00,24.0,21.0,30.41,NNE,23,1.0,4.0,89,0.00,,,0.00,weatherlink.com 1.10,2013-01-15 09:35:00,
2013-01-15 04:50:00,23.9,21.0,30.42,North,5,2.0,3.0,90,0.00,,,0.00,weatherlink.com 1.10,2013-01-15 09:50:00,
2013-01-15 05:05:00,23.9,21.0,30.41,NNW,347,2.0,4.0,90,0.00,,,0.00,weatherlink.com 1.10,2013-01-15 10:05:00,
2013-01-15 05:20:00,24.1,22.0,30.42,NNE,22,0.0,3.0,90,0.00,,,0.00,weatherlink.com 1.10,2013-01-15 10:20:00,
2013-01-15 05:35:00,24.3,22.0,30.42,North,4,1.0,4.0,90,0.00,,,0.00,weatherlink.com 1.10,2013-01-15 10:35:00,
2013-01-15 05:50:00,24.6,22.0,30.43,NE,50,2.0,4.0,90,0.00,,,0.00,weatherlink.com 1.10,2013-01-15 10:50:00,
2013-01-15 06:05:00,24.8,22.0,30.43,North,357,0.0,4.0,89,0.00,,,0.00,weatherlink.com 1.10,2013-01-15 11:05:00,
2013-01-15 06:21:00,25.0,22.0,30.43,NNE,32,0.0,4.0,89,0.00,,,0.00,weatherlink.com 1.10,2013-01-15 11:21:00,
2013-01-15 06:36:00,25.3,23.0,30.43,North,353,2.0,4.0,89,0.00,,,0.00,weatherlink.com 1.10,2013-01-15 11:36:00,
2013-01-15 06:51:00,25.5,23.0,30.43,NNE,33,4.0,5.0,89,0.00,,,0.00,weatherlink.com 1.10,2013-01-15 11:51:00,
2013-01-15 07:06:00,25.8,23.0,30.42,NNE,18,2.0,5.0,88,0.00,,,0.00,weatherlink.com 1.10,2013-01-15 12:06:00,
2013-01-15 07:21:00,25.9,22.0,30.42,NNW,328,3.0,5.0,86,0.00,,,0.00,weatherlink.com 1.10,2013-01-15 12:21:00,
2013-01-15 07:36:00,26.0,22.0,30.42,NNE,20,1.0,6.0,86,0.00,,,0.00,weatherlink.com 1.10,2013-01-15 12:36:00,
2013-01-15 07:51:00,26.0,22.0,30.42,ESE,117,1.0,7.0,85,0.00,,,0.00,weatherlink.com 1.10,2013-01-15 12:51:00,
2013-01-15 08:06:00,26.1,22.0,30.43,ESE,114,3.0,6.0,85,0.00,,,0.00,weatherlink.com 1.10,2013-01-15 13:06:00,
2013-01-15 08:21:00,26.0,22.0,30.44,North,11,2.0,7.0,84,0.00,,,0.00,weatherlink.com 1.10,2013-01-15 13:21:00,
2013-01-15 08:36:00,26.2,22.0,30.45,NNE,32,2.0,4.0,85,0.00,,,0.00,weatherlink.com 1.10,2013-01-15 13:36:00,
2013-01-15 08:51:00,26.2,22.0,30.44,North,354,6.0,7.0,84,0.00,,,0.00,weatherlink.com 1.10,2013-01-15 13:51:00,
2013-01-15 09:06:00,26.6,22.0,30.44,East,87,2.0,8.0,84,0.00,,,0.00,weatherlink.com 1.10,2013-01-15 14:06:00,
2013-01-15 09:21:00,26.4,22.0,30.44,NNE,32,2.0,8.0,83,0.00,,,0.00,weatherlink.com 1.10,2013-01-15 14:21:00,
2013-01-15 09:36:00,26.7,23.0,30.43,North,354,3.0,6.0,84,0.00,,,0.00,weatherlink.com 1.10,2013-01-15 14:36:00,
2013-01-15 09:51:00,27.6,23.0,30.42,ESE,121,0.0,5.0,83,0.00,,,0.00,weatherlink.com 1.10,2013-01-15 14:51:00,
2013-01-15 10:06:00,28.5,23.0,30.42,NE,51,1.0,5.0,81,0.00,,,0.00,weatherlink.com 1.10,2013-01-15 15:06:00,
2013-01-15 10:21:00,28.2,23.0,30.42,NE,37,3.0,6.0,81,0.00,,,0.00,weatherlink.com 1.10,2013-01-15 15:21:00,
2013-01-15 10:36:00,28.3,23.0,30.43,NE,39,1.0,6.0,81,0.00,,,0.00,weatherlink.com 1.10,2013-01-15 15:36:00,
2013-01-15 10:51:00,28.4,23.0,30.44,WSW,254,0.0,4.0,81,0.00,,,0.00,weatherlink.com 1.10,2013-01-15 15:51:00,
2013-01-15 11:06:00,28.8,24.0,30.43,SE,124,2.0,7.0,81,0.00,,,0.00,weatherlink.com 1.10,2013-01-15 16:06:00,
2013-01-15 11:21:00,29.9,24.0,30.43,ESE,102,1.0,4.0,80,0.00,,,0.00,weatherlink.com 1.10,2013-01-15 16:21:00,
2013-01-15 11:36:00,29.6,24.0,30.41,ENE,63,3.0,6.0,79,0.00,,,0.00,weatherlink.com 1.10,2013-01-15 16:36:00,
2013-01-15 11:51:00,30.4,25.0,30.39,ESE,113,1.0,6.0,79,0.00,,,0.00,weatherlink.com 1.10,2013-01-15 16:51:00,
2013-01-15 12:06:00,30.7,24.0,30.38,ESE,113,1.0,5.0,77,0.00,,,0.00,weatherlink.com 1.10,2013-01-15 17:06:00,
2013-01-15 12:21:00,30.7,25.0,30.38,SSW,207,0.0,7.0,78,0.00,,,0.00,weatherlink.com 1.10,2013-01-15 17:21:00,
2013-01-15 12:36:00,30.4,24.0,30.36,NE,48,2.0,6.0,78,0.00,,,0.00,weatherlink.com 1.10,2013-01-15 17:36:00,
2013-01-15 12:51:00,30.8,25.0,30.35,NE,43,4.0,7.0,78,0.00,,,0.00,weatherlink.com 1.10,2013-01-15 17:51:00,
2013-01-15 13:06:00,31.3,25.0,30.33,NNW,328,1.0,7.0,77,0.00,,,0.00,weatherlink.com 1.10,2013-01-15 18:06:00,
2013-01-15 13:21:00,31.6,25.0,30.34,SE,139,2.0,6.0,77,0.00,,,0.00,weatherlink.com 1.10,2013-01-15 18:21:00,
2013-01-15 13:36:00,31.7,25.0,30.33,NNE,25,3.0,7.0,77,0.00,,,0.00,weatherlink.com 1.10,2013-01-15 18:36:00,
2013-01-15 13:51:00,32.5,26.0,30.32,North,353,2.0,7.0,76,0.00,,,0.00,weatherlink.com 1.10,2013-01-15 18:51:00,
2013-01-15 14:06:00,32.8,26.0,30.30,North,4,4.0,5.0,76,0.00,,,0.00,weatherlink.com 1.10,2013-01-15 19:06:00,
2013-01-15 14:21:00,33.2,26.0,30.30,SE,124,1.0,6.0,75,0.00,,,0.00,weatherlink.com 1.10,2013-01-15 19:21:00,
2013-01-15 14:36:00,33.5,26.0,30.29,North,358,2.0,5.0,73,0.00,,,0.00,weatherlink.com 1.10,2013-01-15 19:36:00,
2013-01-15 14:51:00,33.2,26.0,30.30,ESE,116,2.0,5.0,75,0.00,,,0.00,weatherlink.com 1.10,2013-01-15 19:51:00,
2013-01-15 15:06:00,33.2,26.0,30.30,North,357,1.0,5.0,75,0.00,,,0.00,weatherlink.com 1.10,2013-01-15 20:06:00,
2013-01-15 15:21:00,33.1,26.0,30.29,North,359,1.0,5.0,75,0.00,,,0.00,weatherlink.com 1.10,2013-01-15 20:21:00,
2013-01-15 15:36:00,33.0,26.0,30.29,ESE,122,2.0,7.0,75,0.00,,,0.00,weatherlink.com 1.10,2013-01-15 20:36:00,
2013-01-15 15:51:00,32.9,25.0,30.32,NE,47,0.0,5.0,74,0.00,,,0.00,weatherlink.com 1.10,2013-01-15 20:51:00,
2013-01-15 16:07:00,32.8,26.0,30.33,NE,47,1.0,5.0,77,0.00,,,0.00,weatherlink.com 1.10,2013-01-15 21:07:00,
2013-01-15 16:22:00,32.7,26.0,30.32,NNW,345,3.0,7.0,77,0.00,,,0.00,weatherlink.com 1.10,2013-01-15 21:22:00,
2013-01-15 16:37:00,32.7,26.0,30.33,NNW,346,1.0,7.0,77,0.00,,,0.00,weatherlink.com 1.10,2013-01-15 21:37:00,
2013-01-15 16:52:00,32.6,26.0,30.31,North,352,5.0,7.0,77,0.00,,,0.00,weatherlink.com 1.10,2013-01-15 21:52:00,
2013-01-15 17:07:00,32.3,26.0,30.28,NNE,27,2.0,9.0,78,0.00,,,0.00,weatherlink.com 1.10,2013-01-15 22:07:00,
2013-01-15 17:22:00,32.1,26.0,30.27,NNE,30,3.0,7.0,78,0.00,,,0.00,weatherlink.com 1.10,2013-01-15 22:22:00,
2013-01-15 17:37:00,32.0,26.0,30.26,North,1,2.0,5.0,78,0.00,,,0.00,weatherlink.com 1.10,2013-01-15 22:37:00,
2013-01-15 17:52:00,31.9,26.0,30.28,NE,46,1.0,3.0,78,0.00,,,0.00,weatherlink.com 1.10,2013-01-15 22:52:00,
2013-01-15 18:07:00,31.9,26.0,30.27,ENE,64,1.0,5.0,78,0.00,,,0.00,weatherlink.com 1.10,2013-01-15 23:07:00,
2013-01-15 18:22:00,31.9,26.0,30.26,NE,34,1.0,5.0,79,0.00,,,0.00,weatherlink.com 1.10,2013-01-15 23:22:00,
2013-01-15 18:37:00,32.0,26.0,30.28,NNE,15,1.0,3.0,78,0.00,,,0.00,weatherlink.com 1.10,2013-01-15 23:37:00,
2013-01-15 18:52:00,32.1,26.0,30.28,North,5,4.0,5.0,79,0.00,,,0.00,weatherlink.com 1.10,2013-01-15 23:52:00,
2013-01-15 19:07:00,32.0,26.0,30.27,NNE,27,2.0,5.0,78,0.00,,,0.00,weatherlink.com 1.10,2013-01-16 00:07:00,
2013-01-15 19:22:00,31.9,26.0,30.25,East,80,2.0,5.0,79,0.00,,,0.00,weatherlink.com 1.10,2013-01-16 00:22:00,
2013-01-15 19:37:00,31.9,26.0,30.24,NNE,30,5.0,5.0,78,0.00,,,0.00,weatherlink.com 1.10,2013-01-16 00:37:00,
2013-01-15 19:52:00,32.0,26.0,30.23,WNW,283,0.0,3.0,79,0.00,,,0.00,weatherlink.com 1.10,2013-01-16 00:52:00,
2013-01-15 20:07:00,32.0,26.0,30.23,SE,144,1.0,3.0,79,0.00,,,0.00,weatherlink.com 1.10,2013-01-16 01:07:00,
2013-01-15 20:22:00,32.0,26.0,30.22,NNE,32,0.0,4.0,79,0.00,,,0.00,weatherlink.com 1.10,2013-01-16 01:22:00,
2013-01-15 20:37:00,32.1,26.0,30.21,WSW,243,0.0,3.0,78,0.00,,,0.00,weatherlink.com 1.10,2013-01-16 01:37:00,
2013-01-15 20:52:00,32.1,26.0,30.20,North,360,3.0,6.0,78,0.00,,,0.00,weatherlink.com 1.10,2013-01-16 01:52:00,
2013-01-15 21:07:00,32.1,26.0,30.19,ENE,70,0.0,2.0,78,0.00,,,0.00,weatherlink.com 1.10,2013-01-16 02:07:00,
2013-01-15 21:22:00,32.2,26.0,30.19,NNW,328,0.0,3.0,78,0.00,,,0.00,weatherlink.com 1.10,2013-01-16 02:22:00,
2013-01-15 21:37:00,32.2,26.0,30.19,NE,41,1.0,4.0,78,0.00,,,0.00,weatherlink.com 1.10,2013-01-16 02:37:00,
2013-01-15 21:52:00,32.3,26.0,30.18,ESE,122,1.0,3.0,78,0.00,,,0.00,weatherlink.com 1.10,2013-01-16 02:52:00,
2013-01-15 22:07:00,32.3,26.0,30.18,NW,326,1.0,4.0,78,0.00,,,0.00,weatherlink.com 1.10,2013-01-16 03:07:00,
2013-01-15 22:22:00,32.4,26.0,30.18,ENE,72,2.0,4.0,78,0.00,,,0.00,weatherlink.com 1.10,2013-01-16 03:22:00,
2013-01-15 22:37:00,32.4,26.0,30.16,NNW,339,1.0,4.0,78,0.00,,,0.00,weatherlink.com 1.10,2013-01-16 03:37:00,
2013-01-15 22:52:00,32.4,27.0,30.18,North,351,2.0,5.0,79,0.00,,,0.00,weatherlink.com 1.10,2013-01-16 03:52:00,
2013-01-15 23:07:00,32.5,27.0,30.18,North,354,0.0,2.0,79,0.00,,,0.00,weatherlink.com 1.10,2013-01-16 04:07:00,
2013-01-15 23:22:00,32.5,27.0,30.18,North,6,0.0,4.0,80,0.00,,,0.00,weatherlink.com 1.10,2013-01-16 04:22:00,
2013-01-15 23:37:00,32.5,27.0,30.16,NNW,340,1.0,3.0,80,0.00,,,0.00,weatherlink.com 1.10,2013-01-16 04:37:00,
2013-01-15 23:52:00,32.3,27.0,30.16,North,349,3.0,3.0,82,0.00,,,0.00,weatherlink.com 1.10,2013-01-16 04:52:00,